N9GIA Weather Reports


time (UTC)temp
F
wind
direction
speed
knots
gust
knots
rain 1hr
in
rain 24hr
in
rain mn
in
humidity
%
barometer
mb
20260504081553 55 146 0.9 2.6 0.00 0.00 0.00 5 982.2
20260504050022 59 138 0.9 3.5 0.00 0.00 0.00 58 983.7
20260504044516 59 149 1.7 4.3 0.00 0.00 0.00 58 983.9
20260504043015 59 140 2.6 5.2 0.00 0.00 0.00 59 983.9
20260504041517 59 163 0.9 1.7 0.00 0.00 0.00 61 984.2
20260504040011 59 163 1.7 2.6 0.00 0.00 0.00 62 984.3
20260504034514 58 165 1.7 2.6 0.00 0.00 0.00 64 984.5
20260504033013 60 165 0.9 2.6 0.00 0.00 0.00 64 984.4
20260504031510 60 165 0.9 2.6 0.00 0.00 0.00 63 984.4
20260504030009 60 165 0.9 1.7 0.00 0.00 0.00 64 984.6
20260504024509 61 165 1.7 2.6 0.00 0.00 0.00 63 984.6
20260504023008 62 165 1.7 2.6 0.00 0.00 0.00 62 984.5
20260504021507 61 165 1.7 3.5 0.00 0.00 0.00 63 984.5
20260504020012 64 188 0.9 2.6 0.00 0.00 0.00 57 984.4
20260504014511 64 188 0.0 4.3 0.00 0.00 0.00 57 984.4
20260504013006 65 232 1.7 3.5 0.00 0.00 0.00 55 984.3
20260504011505 66 244 1.7 3.5 0.00 0.00 0.00 55 984.2
20260504010005 66 248 1.7 4.3 0.00 0.00 0.00 54 984.1
20260504004515 67 245 2.6 7.0 0.00 0.00 0.00 54 984.1
20260504003005 67 257 1.7 6.1 0.00 0.00 0.00 56 984.2
20260504001505 68 263 4.3 7.8 0.00 0.00 0.00 54 984.1
20260504000004 69 270 4.3 10.4 0.00 0.00 0.00 53 983.9
20260503234503 69 266 6.1 7.8 0.00 0.00 0.00 53 984.3
20260503233011 70 248 5.2 9.6 0.00 0.00 0.00 51 984.1
20260503231502 70 261 8.7 12.2 0.00 0.00 0.00 50 984.5
20260503230002 71 263 5.2 11.3 0.00 0.00 0.00 49 984.1
20260503224600 71 246 6.1 9.6 0.00 0.00 0.00 46 984.0
20260503223059 71 238 6.1 11.3 0.00 0.00 0.00 46 984.2
20260503221600 71 229 9.6 14.8 0.00 0.00 0.00 45 984.1
20260503220053 70 213 7.0 13.9 0.00 0.00 0.00 44 984.3
20260503214550 69 222 7.0 11.3 0.00 0.00 0.00 44 984.3
20260503213048 69 192 6.1 12.2 0.00 0.00 0.00 45 984.5
20260503211546 69 217 12.2 16.5 0.00 0.00 0.00 44 984.6
20260503210045 68 192 8.7 17.4 0.00 0.00 0.00 45 984.9
20260503204545 68 202 10.4 14.8 0.00 0.00 0.00 44 984.9
20260503203053 67 207 10.4 20.0 0.00 0.00 0.00 44 985.2
20260503201540 67 205 10.4 22.6 0.00 0.00 0.00 44 985.6
20260503200039 67 200 9.6 17.4 0.00 0.00 0.00 44 986.3
20260503194541 67 198 13.0 21.7 0.00 0.00 0.00 44 986.1
20260503193038 66 193 9.6 16.5 0.00 0.00 0.00 46 986.4
20260503191537 66 188 13.9 21.7 0.00 0.00 0.00 42 985.9
20260503190033 66 210 13.0 22.6 0.00 0.00 0.00 42 986.7
20260503184531 69 183 14.8 21.7 0.00 0.00 0.00 41 987.1
20260503183028 66 205 13.9 22.6 0.00 0.00 0.00 44 987.3
20260503181527 65 165 13.0 26.1 0.00 0.00 0.00 45 987.3
20260503180024 65 170 14.8 23.5 0.00 0.00 0.00 45 988.0
20260503174521 66 200 13.9 20.0 0.00 0.00 0.00 45 988.7
20260503173017 65 225 12.2 20.0 0.00 0.00 0.00 46 988.9
20260503171513 63 217 10.4 16.5 0.00 0.00 0.00 51 989.4